Satellite-Ground Cal/Val Region Overpasses Predictions

Prediction of Satellite NPP Overpassing Cal/Val Region: PacNW

Region Location: (Latitude: 10.00, Longitude: 139.50) to (Latitude: 22.70, Longitude: 165.60).

Table of predicted overpasses for the next 14.0 days since TLE Epoch: 9/30/2023
Interval Starting Time Starting Location Ending Time Ending Location
1 09/30/2023 02:40:20 ( 10.92, 159.70) 09/30/2023 02:43:40 ( 22.66, 156.90)
2 09/30/2023 15:11:58 ( 22.64, 157.12) 09/30/2023 15:15:33 ( 10.02, 154.12)
3 10/01/2023 02:21:02 ( 10.03, 164.66) 10/01/2023 02:24:37 ( 22.65, 161.67)
4 10/01/2023 14:52:55 ( 22.66, 161.88) 10/01/2023 14:56:30 ( 10.03, 158.89)
5 10/02/2023 03:43:28 ( 10.03, 144.05) 10/02/2023 03:47:03 ( 22.65, 141.05)
6 10/02/2023 14:35:04 ( 18.39, 165.60) 10/02/2023 14:37:26 ( 10.05, 163.65)
7 10/02/2023 16:15:21 ( 22.65, 141.27) 10/02/2023 16:17:25 ( 15.38, 139.51)
8 10/03/2023 03:24:25 ( 10.02, 148.81) 10/03/2023 03:28:01 ( 22.70, 145.80)
9 10/03/2023 15:56:18 ( 22.66, 146.03) 10/03/2023 15:59:53 ( 10.04, 143.04)
10 10/04/2023 03:05:21 ( 10.01, 153.58) 10/04/2023 03:08:57 ( 22.69, 150.57)
11 10/04/2023 15:37:14 ( 22.67, 150.80) 10/04/2023 15:40:49 ( 10.05, 147.80)
12 10/05/2023 02:46:18 ( 10.00, 158.34) 10/05/2023 02:49:54 ( 22.69, 155.33)
13 10/05/2023 15:18:11 ( 22.68, 155.56) 10/05/2023 15:21:46 ( 10.06, 152.56)
14 10/06/2023 02:27:16 ( 10.06, 163.09) 10/06/2023 02:30:51 ( 22.68, 160.09)
15 10/06/2023 14:59:07 ( 22.68, 160.32) 10/06/2023 15:02:43 ( 10.00, 157.31)
16 10/07/2023 02:10:56 ( 19.69, 165.59) 10/07/2023 02:11:47 ( 22.68, 164.86)
17 10/07/2023 03:49:41 ( 10.01, 142.49) 10/07/2023 03:53:15 ( 22.57, 139.51)
18 10/07/2023 14:40:04 ( 22.69, 165.09) 10/07/2023 14:43:40 ( 10.01, 162.08)
19 10/07/2023 16:21:34 ( 22.67, 139.71) 10/07/2023 16:21:48 ( 21.85, 139.51)
20 10/08/2023 03:30:38 ( 10.01, 147.25) 10/08/2023 03:34:14 ( 22.69, 144.24)
21 10/08/2023 16:02:30 ( 22.67, 144.47) 10/08/2023 16:06:05 ( 10.05, 141.47)
22 10/09/2023 03:11:34 ( 10.00, 152.01) 10/09/2023 03:15:10 ( 22.69, 149.00)
23 10/09/2023 15:43:27 ( 22.68, 149.23) 10/09/2023 15:47:02 ( 10.06, 146.24)
24 10/10/2023 02:52:31 ( 10.01, 156.78) 10/10/2023 02:56:07 ( 22.69, 153.76)
25 10/10/2023 15:24:23 ( 22.67, 154.00) 10/10/2023 15:27:58 ( 10.05, 151.00)
26 10/11/2023 02:33:27 ( 10.01, 161.54) 10/11/2023 02:37:03 ( 22.69, 158.53)
27 10/11/2023 15:05:20 ( 22.67, 158.76) 10/11/2023 15:08:55 ( 10.05, 155.76)
28 10/12/2023 02:15:16 ( 13.07, 165.60) 10/12/2023 02:18:00 ( 22.70, 163.29)
29 10/12/2023 03:55:54 ( 10.03, 140.92) 10/12/2023 03:57:38 ( 16.14, 139.51)
30 10/12/2023 14:46:16 ( 22.67, 163.52) 10/12/2023 14:49:51 ( 10.05, 160.52)
31 10/13/2023 03:36:50 ( 10.03, 145.68) 10/13/2023 03:40:25 ( 22.66, 142.69)
32 10/13/2023 14:30:25 ( 11.39, 165.59) 10/13/2023 14:30:48 ( 10.04, 165.28)
